Regional Weather Roundup
Issued by NWS Kansas City/Pleasant Hill, MO

Home | Current Version | Previous Version | Graphics & Text | Print | Product List | Glossary Off
Versions: 1 2 3 4 5 6 7 8 9 10 11 12 13 14 15 16 17 18 19 20 21 22 23 24 25 26 27 28 29 30 31 32 33 34 35 36 37 38 39 40 41 42 43 44 45 46 47 48 49 50

000
ASUS43 KEAX 161311
RWREAX

WEATHER ROUNDUP FOR EASTERN KANSAS AND NORTHWEST MISSOURI
NATIONAL WEATHER SERVICE KANSAS CITY/PLEASANT HILL MO
800 AM CDT TUE SEP 16 2014

KSZ040-057-103>105-MOZ028-029-037-043-161400-
...KANSAS CITY METROPOLITAN AREA...

CITY           SKY/WX    TMP DP  RH WIND       PRES   REMARKS
K.C. INTL      SUNNY     50  48  93 NE7       30.25S
K.C. DOWNTOWN  SUNNY     52  48  86 NE3       30.25R
LEES SUMMIT    SUNNY     50  48  93 NE5       30.25S
OLATHE - IXD   SUNNY     48  48 100 CALM      30.25R
OLATHE - OJC   SUNNY     50  48  93 NE6       30.24R
LAWRENCE       SUNNY     47  45  93 CALM      30.25S

$$

MOZ001>008-011>017-020>025-030>033-038>040-044>046-053-054-161400-
...NORTHERN AND CENTRAL MISSOURI...

CITY           SKY/WX    TMP DP  RH WIND       PRES   REMARKS
ST. JOSEPH     MOSUNNY   43  43 100 CALM      30.26S
MOSBY          SUNNY     46  46 100 CALM      30.25S
WARRENSBURG    CLOUDY    54  50  87 N5        30.24S
WHITEMAN AFB   CLOUDY    55  51  86 NE6       30.23S
CLINTON        CLOUDY    57  54  88 CALM      30.23S
SEDALIA        CLOUDY    57  51  80 NE7       30.24S
WARSAW         NOT AVBL
MARSHALL       SUNNY     54  54 100 NE6       30.25S
CHILLICOTHE      N/A     48  46  93 CALM      30.27S
MOBERLY        SUNNY     50  46  87 NE3       30.26R FOG
KIRKSVILLE     SUNNY     47  46  97 CALM      30.26F

$$

MOZ041-047>049-056>058-063>065-088>090-097-161400-
...EASTERN AND SOUTHERN MISSOURI...

CITY           SKY/WX    TMP DP  RH WIND       PRES   REMARKS
ST. LOUIS INTL DRIZZLE   58  55  90 E6        30.23S FOG
SPIRIT OF STL  CLOUDY    58  55  90 E8        30.22R FOG
COLUMBIA       CLOUDY    54  51  90 NE6       30.24R
JEFFERSON CITY CLOUDY    57  51  80 NE3       30.24R
MEXICO         SUNNY    N/A N/A N/A NE5       30.24R
HANNIBAL       FOG       52  48  87 CALM      30.25S VSB 3/4
ROLLA          CLOUDY    55  54  96 NE7       30.21R FOG
OSAGE BEACH    CLOUDY    57  54  88 NE8       30.22S
SPRINGFIELD    CLOUDY    63  58  83 NE7       30.19R
BRANSON        CLOUDY    64  63  94 NE3       30.19R
JOPLIN         CLOUDY    59  57  93 N7        30.20S
WEST PLAINS    CLOUDY    62  56  80 NE6       30.20R

$$

IAZ060-094-KSZ022-034>040-054-083-096-NEZ052-066-093-161400-
...KANSAS...SOUTHEAST NEBRASKA AND IOWA...

CITY           SKY/WX    TMP DP  RH WIND       PRES   REMARKS
TOPEKA         CLEAR     48  47  96 NW3       30.26R
MANHATTAN      CLEAR     46  44  93 CALM      30.25S
EMPORIA        PTCLDY    49  48  97 N3        30.24S FOG
CHANUTE        CLOUDY    58  51  78 NE8       30.21S
WICHITA        CLOUDY    60  51  72 NE8       30.21S
OMAHA          FOG       46  44  93 S5        30.25F VSB 1/4
LINCOLN        CLEAR     42  40  92 CALM      30.24F
FALLS CITY     CLEAR     44  43  96 CALM      30.25S
LAMONI         SUNNY     47  44  90 CALM      30.26R
DES MOINES     SUNNY     48  44  86 CALM      30.25S

$$



USA.gov is the U.S. government's official web portal to all federal, state and local government web resources and services.